Terug naar catalogus

FENGYUN 1C DEB

ActiefSSO
NORAD 31819·DEBRIS·🇨🇳 China

Gelanceerd May 10, 1999 vanaf Taiyuan Satellite Launch Center

Loading…

Volgende Passages (komende 24 uur)

TLE

VerouderendSource: Space-Track

Epoch: Sep 9, 2026, 18:35 UTC

1 31819U 99025CHH 26252.77463409  .00000426  00000-0  17283-3 0  9990
2 31819  98.4939 242.4795 0085586 239.9709 119.2963 14.30633680  5527

Volg FENGYUN 1C DEB in realtime met AllMySat

Download on the App Store